SCP
1 1 1 0 0 0 0 0 0 0 0 0 0 0 0 0 0 0 0 0 0 0 0 0 0 0 0 0 0 0 0 0 0 0 0 0 0 0
1 1 0 0 0 0 0 0 0 0 0 0 0 0 0 0 0 0 0 0 0 0 0 0 0 0 0 0 0 0 0 0 0 0 0 0 0 0
0 0 0 0 0 0 0 0 0 0 0 0 0 0 0 0 0 0 0 0 0 0 0 0 0 0 0 0 0 0 0 0 0 0 0 0 0 0
0 0 0 0 0 0 0 0 0 0 0 0 0 0 0 0 0 0 0 0 0 0 0 0 0 0 0 0 0 0 0 0 0 0 0 0 0 0
0 0 0 0 0 0 0 0 0 0 0 0 0 0 0 0 0 0 0 0 0 0 0 0 0 0 0 0 0 0 0 0 0 0 0 0 0 0
0 0 0 0 0 0 0 0 0 0 0 0 0 0 0 0 0 0 0 0 0 0 0 0 0 0 0 0 0 0 0 0 0 0 0 0 0 0
0 0 0 0 0 0 0 0 0 0 0 0 0 0 0 0 0 0 0 0 0 0 0 0 0 0 0 0 0 0 0 0 0 0 0 0 0 0
0 0 0 0 0 0 0 0 0 0 0 0 0 0 0 0 0 0 0 0 0 0 0 0 0 0 0 0 0 0 0 0 0 0 0 0 0 0
0 0 0 0 0 0 0 0 0 0 0 0 0 0 0 0 0 0 0 0 0 0 0 0 0 0 0 0 0 0 0 0 0 0 0 0 0 0
0 0 0 0 0 0 0 0 0 0 0 0 0 0 0 0 0 0 0 0 0 0 0 0 0 0 0 0 0 0 0 0 0 0 0 0 0 0
0 0 0 0 0 0 0 0 0 0 0 0 0 0 0 0 0 0 0 0 0 0 0 0 0 0 0 0 0 0 0 0 0 0 0 0 0 0
0 0 0 0 0 0 0 0 0 0 0 0 0 0 0 0 0 0 0 0 0 0 0 0 0 0 0 0 0 0 0 0 0 0 0 0 0 0
0 0 0 0 0 0 0 0 0 0 0 0 0 0 0 0 0 0 0 0 0 0 0 0 0 0 0 0 0 0 0 0 0 0 0 0 0 0
0 0 0 0 0 0 0 0 0 0 0 0 0 0 0 0 0 0 0 0 0 0 0 0 0 0 0 0 0 0 0 0 0 0 0 0 0 0
0 0 0 0 0 0 0 0 0 0 0 0 0 0 0 0 0 0 0 0 0 0 0 0 0 0 0 0 0 0 0 0 0 0 0 0 0 0
0 0 0 0 0 0 0 0 0 0 0 0 0 0 0 0 0 0 0 0 0 0 0 0 0 0 0 0 0 0 0 0 0 0 0 0 0 0
0 0 0 0 0 0 0 0 0 0 0 0 0 0 0 0 0 0 0 0 0 0 0 0 0 0 0 0 0 0 0 0 0 0 0 0 0 0
0 0 0 0 0 0 0 0 0 0 0 0 0 0 0 0 0 0 0 0 0 0 0 0 0 0 0 0 0 0 0 0 0 0 0 0 0 0
0 0 0 0 0 0 0 0 0 0 0 0 0 0 0 0 0 0 0 0 0 0 0 0 0 0 0 0 0 0 0 0 0 0 0 0 0 0
0 0 0 0 0 0 0 0 0 0 0 0 0 0 0 0 0 0 0 0 0 0 0 0 0 0 0 0 0 0 0 0 0 0 0 0 0 0
0 0 0 0 0 0 0 0 0 0 0 0 0 0 0 0 0 0 0 0 0 0 0 0 0 0 0 0 0 0 0 0 0 0 0 0 0 0
0 0 0 0 0 0 0 0 0 0 0 0 0 0 0 0 0 0 0 0 0 0 0 0 0 0 0 0 0 0 0 0 0 0 0 0 0 0
0 0 0 0 0 0 0 0 0 0 0 0 0 0 0 0 0 0 0 0 0 0 0 0 0 0 0 0 0 0 0 0 0 0 0 0 0 0
Wind_Speed
5 5 4 3 3 3 3 4 4 4 4 3 2 2 1 0 1 1 1 4 5 5 5 6 6 7 8 8 8 8 9 9 6 4 4 5 6 9
4 5 4 3 3 3 3 3 4 4 4 1 2 2 2 1 1 1 2 3 4 4 5 5 6 7 8 8 9 9 9 9 7 3 2 4 5 5
5 5 5 4 3 3 3 3 4 4 5 2 1 1 2 2 2 1 1 1 2 4 4 5 6 6 7 8 9 9 9 9 7 5 2 1 3 3
6 5 5 4 5 3 3 4 3 4 4 4 2 2 2 2 2 1 1 1 2 4 4 4 5 6 7 8 9 9 9 9 7 5 4 2 2 3
5 6 5 5 5 4 4 3 3 3 3 3 2 1 1 2 2 1 1 0 1 2 3 3 4 5 6 7 8 9 9 10 9 6 6 5 4 5
5 4 4 5 5 5 4 4 3 3 3 3 2 2 2 2 2 2 2 2 1 1 1 2 3 4 6 7 7 8 8 9 9 9 9 8 8 7
5 4 4 3 3 3 3 3 3 3 3 3 3 2 3 3 3 3 2 2 1 0 1 0 0 1 2 4 5 6 6 7 8 9 10 10 10 10
5 5 4 5 5 5 4 2 2 3 4 3 3 4 4 4 3 3 2 2 2 2 2 1 1 0 1 2 5 5 5 5 6 7 8 9 10 10
6 5 4 4 5 5 5 4 2 1 2 4 4 4 4 4 4 4 3 3 1 2 1 2 2 1 1 2 4 4 5 4 5 6 7 8 8 8
6 6 6 6 6 6 5 4 3 2 1 3 3 2 2 2 3 3 3 2 2 1 2 2 2 1 1 1 4 4 4 4 5 5 6 6 6 6
6 6 7 7 9 9 6 5 4 3 2 1 1 2 2 2 3 3 4 3 2 3 2 2 2 1 2 2 1 4 3 3 4 4 4 4 4 3
6 6 8 8 10 11 7 7 6 5 4 4 4 4 4 4 3 2 3 3 2 2 3 2 2 2 2 2 1 1 1 2 3 3 2 2 1 1
6 6 6 12 12 13 10 6 6 5 5 4 4 3 3 3 2 2 1 2 2 1 3 2 2 2 1 1 2 2 1 1 1 0 1 1 0 2
6 6 6 12 13 13 10 8 9 8 4 4 4 4 4 3 3 2 2 1 1 1 2 2 1 2 2 2 2 2 2 2 2 2 1 1 2 3
6 8 9 12 12 10 12 12 10 7 5 5 5 4 3 3 3 3 3 2 2 2 2 1 2 2 1 2 1 1 2 2 2 2 2 3 3 3
7 9 12 12 10 8 9 9 8 7 6 6 5 4 4 4 4 4 4 4 3 3 3 2 2 2 2 3 3 3 3 2 2 3 3 3 4 4
7 6 6 6 7 7 7 7 7 7 7 6 5 5 5 5 5 4 4 4 4 3 4 4 3 3 3 3 4 5 4 4 3 3 3 4 5 5
10 7 8 8 8 8 8 8 8 8 8 7 6 6 6 6 6 5 5 5 5 5 4 4 4 3 3 6 9 6 4 4 3 4 4 4 5 4
10 8 8 8 8 8 8 8 8 8 7 7 7 7 6 6 6 6 6 6 6 5 5 5 5 5 4 4 5 9 5 3 3 4 4 5 4 4
8 8 8 8 8 8 8 8 8 7 7 8 7 7 7 7 7 7 7 8 7 6 6 6 7 7 6 3 2 4 9 6 4 4 4 4 5 7
8 8 7 7 8 8 8 8 8 8 8 8 8 8 8 8 8 8 7 10 9 7 8 7 7 7 3 2 3 4 5 10 9 5 3 4 4 4
7 8 7 7 7 7 7 7 7 8 8 8 8 8 8 8 9 9 8 8 8 8 8 5 5 6 6 7 7 5 4 5 9 13 13 10 5 4
7 7 7 7 7 6 7 8 9 8 8 8 8 8 8 8 8 8 8 8 7 8 7 6 6 6 7 7 7 6 7 6 5 6 8 14 19 20
Wind_Direction
184 192 197 192 199 219 231 236 243 256 249 206 181 157 161 133 53 355 39 63 58 54 50 42 34 25 17 11 10 6 0 352 333 279 229 214 218 214
176 188 193 191 191 207 219 229 237 251 260 207 184 154 161 167 94 50 61 71 69 62 52 47 42 32 22 18 17 13 8 3 358 347 242 210 205 194
179 191 193 191 196 199 208 219 226 235 251 248 184 177 196 193 164 118 72 47 64 67 64 51 46 38 27 22 20 17 12 9 5 10 27 151 172 166
182 188 191 186 195 197 206 218 225 232 247 250 207 196 213 199 176 150 93 54 49 65 63 51 44 38 30 25 22 21 18 16 14 19 29 46 114 135
184 190 191 193 197 197 204 212 215 222 236 245 217 190 198 182 173 167 164 127 60 47 50 44 42 39 34 29 26 25 24 24 28 39 43 53 82 113
180 188 193 200 203 197 201 211 211 217 220 227 213 200 201 184 194 195 198 190 171 32 49 37 41 46 38 34 29 25 28 30 34 47 55 59 69 83
179 184 187 188 196 196 202 206 208 218 218 218 214 202 201 196 205 192 201 178 178 217 243 35 347 30 36 30 27 24 29 36 43 52 59 64 70 74
181 180 175 180 181 181 185 200 228 234 226 218 220 220 216 209 189 184 176 189 202 170 220 179 229 165 30 17 18 22 34 47 54 60 66 71 71 72
181 182 182 180 178 172 160 156 163 210 264 249 239 232 219 198 185 187 191 210 195 119 215 186 183 187 86 22 17 32 41 55 72 76 78 78 77 76
188 192 192 187 185 183 179 179 180 175 219 244 254 250 237 190 190 189 171 153 125 143 235 216 180 184 145 94 34 34 48 60 74 83 83 80 76 77
195 201 200 197 187 188 186 187 191 176 136 121 82 98 120 144 159 152 159 178 192 171 187 223 176 183 188 176 71 29 45 63 65 75 81 81 77 81
196 201 208 207 193 193 197 196 203 190 173 159 147 134 138 141 160 198 187 195 197 184 170 197 173 177 192 174 183 200 138 82 64 53 56 74 75 257
198 201 202 203 205 204 206 210 203 186 184 185 181 172 168 160 161 160 173 195 200 193 149 167 170 179 194 181 186 194 225 231 236 261 30 10 282 282
205 205 200 199 206 207 207 202 192 186 188 192 198 197 192 183 164 148 128 102 67 79 132 148 163 176 179 198 193 184 209 229 246 251 248 244 252 261
208 203 198 199 204 210 213 202 195 195 193 201 206 203 191 170 153 147 144 137 130 124 135 162 179 173 212 229 213 205 221 217 224 236 240 244 247 244
209 205 203 204 205 206 204 204 203 201 201 209 206 192 170 168 183 183 184 181 189 177 156 165 184 188 211 229 238 238 226 229 214 223 240 252 252 246
185 183 190 192 199 200 201 203 201 199 207 209 202 193 189 189 191 188 191 191 205 195 179 175 182 205 242 247 239 236 232 230 228 223 238 254 248 241
188 192 198 201 204 203 201 201 203 205 205 202 202 202 199 197 193 187 193 203 211 210 196 177 173 191 218 233 222 241 239 233 224 217 230 251 259 241
202 204 205 205 206 205 204 204 205 204 199 200 202 201 199 199 198 197 199 206 213 212 202 186 187 199 222 241 192 208 228 219 216 222 226 236 257 263
208 208 207 206 205 205 205 206 205 199 197 202 201 200 199 200 202 205 204 207 210 208 206 199 202 206 216 241 240 199 213 224 224 233 238 244 259 267
206 211 210 207 205 204 204 203 201 200 197 197 201 200 199 200 206 208 208 208 210 210 214 214 210 199 196 199 239 236 214 216 225 232 235 250 263 259
207 208 208 206 204 203 201 199 200 202 199 201 202 200 199 201 206 206 206 206 208 213 218 208 167 174 191 212 232 239 227 214 227 236 241 238 240 246
209 208 207 205 203 199 197 199 201 202 201 201 201 200 198 201 204 205 206 208 209 207 205 197 186 193 206 217 233 241 241 233 236 236 238 236 240 251